Regional Weather Roundup
Issued by NWS

Home | Current Version | Previous Version | Text Only | Print | Product List | Glossary On
Versions: 1 2 3 4 5 6 7 8 9 10 11 12 13 14 15 16 17 18 19 20 21 22 23 24 25 26 27 28 29 30 31 32 33 34 35 36 37 38 39 40 41 42 43 44 45 46 47 48 49 50
000
ASUS42 KTBW 091816
RWRFL
FLORIDA REGIONAL WEATHER ROUNDUP
NATIONAL WEATHER SERVICE TAMPA BAY RUSKIN FL
100 PM EST TUE FEB 09 2016

NOTE: "FAIR" INDICATES FEW OR NO CLOUDS BELOW 12,000 FEET WITH NO
SIGNIFICANT WEATHER AND/OR OBSTRUCTIONS TO VISIBILITY.


FLZ001>010-012>015-112-114-115-091900-
PANHANDLE FLORIDA

CITY           SKY/WX    TMP DP  RH WIND       PRES   REMARKS
PENSACOLA      SUNNY     50  15  24 W16G22    30.04F WCI  44
PENSACOLA NAS  SUNNY     49  15  25 NW10G23   30.04F WCI  45
MILTON NAS     SUNNY     48  16  27 NW16G32   30.02  WCI  42
CRESTVIEW      SUNNY     49  14  24 W18G30    30.02F WCI  42
DUKE FIELD     MOSUNNY   48  14  25 W16G25    29.99F WCI  42
VALPARAISO     MOSUNNY   49  13  23 NW21G32   30.00F WCI  43
MARY ESTHER    SUNNY     49  11  21 W13G23    30.02F WCI  44
TRI COUNTY     FAIR      50  22  33 NW8G21    29.98F
PANAMA CITY    FAIR      50  20  30 W18G29    29.99F WCI  44
TYNDALL AFB    SUNNY     52  26  36 W29       30.00F
APALACHICOLA   SUNNY     55  29  36 W24G36    30.00F

STATION/POSITION SKY/WX   TEMP    WIND        PRES    WAVE   SWELL
                          AIR SEA DIR/SP/G            HT/PER HT/PER
                          (F)     (DEG/KT/KT) (MB)    (FT/S) (FT/S)
30.1N   87.6W              47 63  290/ 19/ 23 1017.6F   5/ 6   2/ 9
28.8N   86.0W              56 70  290/ 27/ 35 1017.5F  11/ 9   7/ 9
PANAMA CITY BEAC           47 57  270/ 28/ 35 1016.9F
CAPE SAN BLAS    NOT AVBL
TOWER C          NOT AVBL
28.5N   84.5W              59 67  270/ 25/ 31 1016.2F  12/ 9

$$
FLZ011-016>038-118-127-128-134-139-239-091900-
NORTH FLORIDA

CITY           SKY/WX    TMP DP  RH WIND       PRES   REMARKS
MARIANNA       SUNNY     50  20  30 W20       29.96F WCI  44
TALLAHASSEE    MOSUNNY   55  16  21 W28G37    29.95F
PERRY          SUNNY     55  21  27 SW17G30   29.97F
LIVE OAK         N/A     55  21  26 W13G20    29.96F
CROSS CITY       N/A     55  27  34 W14G21    29.99F
LAKE CITY      FAIR      52  21  30 W25G35    29.94F
GAINESVILLE    SUNNY     56  27  32 W18G31    29.96F
WILLISTON      FAIR      57  32  38 W20G26    29.98F
KEYSTONE HEIGH FAIR      54  19  26 W22G30    29.94F
PALATKA        FAIR      55  25  30 W18G36    29.96F
MAYPORT NAS    MOSUNNY   52  19  27 W17G31    29.90F
JACKSONVILLE   MOSUNNY   52  20  28 W25G36    29.91F
JAX NAS        MOSUNNY   54  15  21 W21G35    29.92F
JAX CRAIG      SUNNY     53  18  25 W23G29    29.92F
JAX CECIL      SUNNY     54  18  24 W26G37    29.93F
FERNANDINA BEA FAIR      54  18  24 W22G31    29.89F
ST AUGUSTINE   SUNNY     55  20  25 W16G33    29.93F
PALM COAST     CLEAR    N/A N/A N/A W21G40    29.96F

STATION/POSITION SKY/WX   TEMP    WIND        PRES    WAVE   SWELL
                          AIR SEA DIR/SP/G            HT/PER HT/PER
                          (F)     (DEG/KT/KT) (MB)    (FT/S) (FT/S)
SHELL POINT                50     280/ 13/ 20 1014.7
KEATON BEACH     NOT AVBL
CEDAR KEY                  51     310/ 10/ 14 1016.2F
FERNANDINA                 48 54  250/ 16/ 24 1013.7F
30.7N   81.3W                 56                N/A     4/ 4   2/18
MAYPORT                    48 56  270/ 20/ 30 1013.7F
31.4N   80.9W              46 55  270/ 25/ 31 1011.4F   6/ 5
ST AUGUSTINE               53 57  260/ 21/ 28 1013.8F

$$
FLZ040-043>046-052-053-057-058-063-144-091900-
INTERIOR CENTRAL FLORIDA

CITY           SKY/WX    TMP DP  RH WIND       PRES   REMARKS
OCALA          MOSUNNY   55  28  35 W17G26    30.00F
THE VILLAGES     N/A     55  32  41 SW10G23   29.90F
LEESBURG       PTSUNNY   55  34  45 W18G25    30.01F
SANFORD        PTSUNNY   57  32  38 W21G28    29.99F
ORLANDO EXEC   PTSUNNY   57  33  40 W16G24    30.00F
ORLANDO INTL   CLOUDY    58  33  39 W18       30.01F
KISSIMMEE      CLOUDY    55  37  50 W20G25    30.01F
WINTER HAVEN   CLOUDY    56  39  53 W15G22    30.03F
LAKELAND       CLOUDY    55  39  54 W17G26    30.03F
OKEECHOBEE     PTSUNNY   59  41  51 W10G17    30.04F

$$
FLZ041-047-054-059-064-141-147-091900-
EAST CENTRAL FLORIDA

CITY           SKY/WX    TMP DP  RH WIND       PRES   REMARKS
ORMOND BEACH   SUNNY     54  28  37 W23G31    29.97F
DAYTONA BEACH  MOSUNNY   57  31  37 W24G36    29.96F
DELAND           N/A     55  28  35 SW14G28   29.99F
JFK SPACE CTR  PTSUNNY   56  31  39 W17G24    29.98F
TITUSVILLE     PTSUNNY   55  28  35 W21G26    30.01F
CAPE CANAVERAL PTSUNNY   56  33  40 W14       29.98F
PATRICK AFB    PTSUNNY   58  35  42 W20       29.99F
MELBOURNE      PTSUNNY   59  35  40 SW13      30.00F
VERO BEACH     CLOUDY    59  35  40 W12       30.02F
FT PIERCE      PTSUNNY   58  39  49 W18G26    30.02F
STUART         MOSUNNY   63  32  31 W16G23    30.07S

STATION/POSITION SKY/WX   TEMP    WIND        PRES    WAVE   SWELL
                          AIR SEA DIR/SP/G            HT/PER HT/PER
                          (F)     (DEG/KT/KT) (MB)    (FT/S) (FT/S)
28.5N   80.2W              52 70  270/ 14/ 19 1016.4F
28.9N   78.5W              57 72              1014.8F
TRIDENT PIER               54 63  240/ 13/ 18 1016.2F
28.4N   80.5W                 63                N/A     2/17   2/17
27.5N   80.2W                 71                N/A     4/15   2/15

$$
FLZ050-056-061-142-242-148-248-149-249-151-251-155-255-
160-260-091900-
WEST CENTRAL FLORIDA

CITY           SKY/WX    TMP DP  RH WIND       PRES   REMARKS
CRYSTAL RIVER  CLOUDY    52  34  50 W10G18    30.02F
INVERNESS      CLOUDY    54  36  50 W8G16     30.02F
BROOKSVILLE    CLOUDY    54  35  48 NW15G22   30.03F
ZEPHYRHILLS    CLOUDY    57  36  45 W14G20    30.02F
CLEARWATER AIR CLOUDY    55  41  58 NW10      30.03F
ST PETE CLEARW CLOUDY    59  42  53 NW16      30.04F
TAMPA INTL     CLOUDY    58  40  51 W8        30.04F
TAMPA EXEC     CLOUDY    57  37  47 NW9       30.04F
PLANT CITY     CLOUDY    57  41  54 W14G20    30.05F
MACDILL AFB    CLOUDY    57  44  60 NW8       30.03F
PETER O KNIGHT CLOUDY    59  43  55 NW10      30.04F
ST PETERSBURG  NOT AVBL
SARASOTA       CLOUDY    63  41  44 NW25G31   30.04F
VENICE         MOCLDY    63  45  51 W24G32    30.07S

STATION/POSITION SKY/WX   TEMP    WIND        PRES    WAVE   SWELL
                          AIR SEA DIR/SP/G            HT/PER HT/PER
                          (F)     (DEG/KT/KT) (MB)    (FT/S) (FT/S)
CEDAR KEY                  51     310/ 10/ 14 1016.2F
28.5N   84.5W              59 67  270/ 25/ 31 1016.2F  12/ 9
27.3N   84.2W                 71                N/A    12/11   5/11
CLEARWATER BEACH           54 56  320/ 13/ 15 1018.0F
MIDDLE TAMPA BAY           56     330/ 14/ 16 1018.4F
VENICE                     60 61  290/ 23/ 26 1017.4F

$$
FLZ066-069-070-075>078-162-262-165-265-091900-
SOUTHWEST FLORIDA AND KEYS

CITY           SKY/WX    TMP DP  RH WIND       PRES   REMARKS
PUNTA GORDA    CLOUDY    62  45  53 NW23G29   30.06F
FT MYERS       PTSUNNY   64  44  48 W16G31    30.04F
SOUTHWEST INTL PTSUNNY   65  43  44 W18G28    30.05F
NAPLES         CLOUDY    65  46  50 W21       30.06F
MARCO ISLAND   CLOUDY    64  45  48 NW15G24   30.06F
MARATHON       MOSUNNY   68  53  58 NW12G20   30.09F
KEY WEST NAS   PTSUNNY   70  53  54 NW14      30.10F
KEY WEST INTL  MOSUNNY   69  55  60 NW16G23   30.10F

STATION/POSITION SKY/WX   TEMP    WIND        PRES    WAVE   SWELL
                          AIR SEA DIR/SP/G            HT/PER HT/PER
                          (F)     (DEG/KT/KT) (MB)    (FT/S) (FT/S)
VENICE                     60 61  290/ 23/ 26 1017.4F
NAPLES                        63              1018.7F
26.0N   85.6W              65 79  300/ 23/ 29 1020.0F  10/10   8/10
DRY TORTUGAS                                    N/A
SAND KEY                   66     330/ 16/ 19 1019.7F
LONG KEY                   63 65  320/ 16/ 17 1019.4F
MOLASSES REEF              64 72  300/ 18/ 20 1017.9F

$$
FLZ067-068-071>074-168-172>174-091900-
SOUTHEAST FLORIDA

CITY           SKY/WX    TMP DP  RH WIND       PRES   REMARKS
W PALM BEACH   CLOUDY    60  41  49 W13G21    30.05F
BOCA RATON     SUNNY     59  41  51 NW14G21   30.06F
FT LAUDER-EXEC CLOUDY    60  41  49 W14       30.06F
FT LAUDERDALE  CLOUDY    62  44  51 NW12G17   30.06F
POMPANO BEACH  CLOUDY    60  43  53 W15       30.06F
PEMBROKE PINES CLOUDY    63  43  48 NW6G17    30.07F
OPA LOCKA      CLOUDY    64  45  49 W14       30.07F
MIAMI          CLOUDY    62  46  55 W8        30.07F
WEST KENDALL   CLOUDY    63  49  60 NW7       30.07F
HOMESTEAD      CLOUDY    66  46  49 W14       30.06S

STATION/POSITION SKY/WX   TEMP    WIND        PRES    WAVE   SWELL
                          AIR SEA DIR/SP/G            HT/PER HT/PER
                          (F)     (DEG/KT/KT) (MB)    (FT/S) (FT/S)
PORT EVERGLC1F1M1C2F2M2C3F3C4F4M3C5F5M4C6F6M5C7F7M6C8!


USA.gov is the U.S. government's official web portal to all federal, state and local government web resources and services.